,,Stat6,,Stat2,,Stat8,,Stat9,,Stat10,,Wind1,,Wind1,
time,status,PA1M_AVG,status,PR1M_SUM,status,RH1M_AVG,status,SR1M_AVG,status,TA1M_AVG,status,W1dAve1m,status,W1sAve1m,
2005-09-13, 00:00:01,VALID,917.517,VALID,0,VALID,99.7701,VALID,-0.0339617,VALID,20.4798,VALID,226,VALID,0.361471,
2005-09-13, 00:01:01,VALID,917.512,VALID,0,VALID,99.8235,VALID,-0.0679233,VALID,20.4703,VALID,216,VALID,0.0795455,
2005-09-13, 00:02:00,VALID,917.501,VALID,0,VALID,99.8515,VALID,-0.0679233,VALID,20.4345,VALID,209,VALID,0.296503,
2005-09-13, 00:03:01,VALID,917.512,VALID,0,VALID,99.8375,VALID,-0.0849042,VALID,20.4187,VALID,193,VALID,0.324777,
2005-09-13, 00:04:00,VALID,917.534,VALID,0,VALID,99.8871,VALID,-0.0339617,VALID,20.3896,VALID,193,VALID,0.315163,
2005-09-13, 00:05:01,VALID,917.559,VALID,0,VALID,99.9591,VALID,-0.0509425,VALID,20.3565,VALID,193,VALID,0.00990854,
2005-09-13, 00:06:00,VALID,917.578,VALID,0,VALID,100,VALID,-0.0679233,VALID,20.3635,VALID,193,VALID,0.000200321,
2005-09-13, 00:07:01,VALID,917.586,VALID,0,VALID,99.999,VALID,-0.0509425,VALID,20.361,VALID,193,VALID,0.170422,
2005-09-13, 00:08:00,VALID,917.6,VALID,0,VALID,99.8655,VALID,-0.0509425,VALID,20.3285,VALID,193,VALID,0.0158067,
2005-09-13, 00:09:00,VALID,917.599,VALID,0,VALID,99.8833,VALID,-0.0679233,VALID,20.2994,VALID,193,VALID,0.389509,
2005-09-13, 00:10:01,VALID,917.598,VALID,0,VALID,99.8782,VALID,-0.0679233,VALID,20.289,VALID,327,VALID,0.553445,
2005-09-13, 00:11:01,VALID,917.584,VALID,0,VALID,99.8553,VALID,-0.0509425,VALID,20.2959,VALID,348,VALID,0.518973,
2005-09-13, 00:12:01,VALID,917.561,VALID,0,VALID,99.7358,VALID,-0.0849042,VALID,20.2766,VALID,325,VALID,0.502734,
2005-09-13, 00:13:01,VALID,917.536,VALID,0,VALID,99.6696,VALID,-0.0849042,VALID,20.2641,VALID,325,VALID,0.523251,
2005-09-13, 00:14:01,VALID,917.514,VALID,0,VALID,99.7497,VALID,-0.0679233,VALID,20.2634,VALID,325,VALID,0.347384,
2005-09-13, 00:15:01,VALID,917.504,VALID,0,VALID,99.7866,VALID,-0.0679233,VALID,20.2897,VALID,325,VALID,0.035061,
2005-09-13, 00:16:00,VALID,917.496,VALID,0,VALID,99.7866,VALID,-0.0509425,VALID,20.3026,VALID,325,VALID,0.0611979,
2005-09-13, 00:17:01,VALID,917.5,VALID,0,VALID,99.7841,VALID,-0.0679233,VALID,20.3024,VALID,293,VALID,0.252841,
2005-09-13, 00:18:01,VALID,917.503,VALID,0,VALID,99.8299,VALID,-0.0169808,VALID,20.276,VALID,235,VALID,0.267027,
2005-09-13, 00:19:00,VALID,917.499,VALID,0,VALID,99.8833,VALID,-0.0509425,VALID,20.2703,VALID,235,VALID,0.216082,
2005-09-13, 00:20:01,VALID,917.491,VALID,0,VALID,99.9023,VALID,-0.0849042,VALID,20.251,VALID,235,VALID,0.0121094,
2005-09-13, 00:21:01,VALID,917.492,VALID,0,VALID,99.91,VALID,-0.0339617,VALID,20.238,VALID,234,VALID,0.155107,
2005-09-13, 00:22:01,VALID,917.471,VALID,0,VALID,99.8769,VALID,-0.0509425,VALID,20.2182,VALID,205,VALID,0.259811,
2005-09-13, 00:23:01,VALID,917.469,VALID,0,VALID,99.8299,VALID,-0.0849042,VALID,20.199,VALID,199,VALID,0.180233,
2005-09-13, 00:24:01,VALID,917.472,VALID,0,VALID,99.9023,VALID,-0.0509425,VALID,20.1961,VALID,199,VALID,0.230015,
2005-09-13, 00:25:00,VALID,917.475,VALID,0,VALID,99.9878,VALID,-0.0339617,VALID,20.2125,VALID,205,VALID,0.296875,
2005-09-13, 00:26:01,VALID,917.473,VALID,0,VALID,100,VALID,-0.101885,VALID,20.2087,VALID,207,VALID,0.112909,
2005-09-13, 00:27:01,VALID,917.469,VALID,0,VALID,99.9814,VALID,-0.0509425,VALID,20.2058,VALID,205,VALID,0.176136,
2005-09-13, 00:28:01,VALID,917.471,VALID,0,VALID,99.8133,VALID,-0.0509425,VALID,20.1926,VALID,180,VALID,0.596591,
2005-09-13, 00:29:01,VALID,917.486,VALID,0,VALID,99.7116,VALID,-0.0679233,VALID,20.1742,VALID,177,VALID,0.505526,
2005-09-13, 00:30:01,VALID,917.48,VALID,0,VALID,99.7574,VALID,-0.0679233,VALID,20.1675,VALID,177,VALID,0.356898,
2005-09-13, 00:31:01,VALID,917.49,VALID,0,VALID,99.8375,VALID,-0.0169808,VALID,20.1702,VALID,177,VALID,0.438859,
2005-09-13, 00:32:00,VALID,917.502,VALID,0,VALID,99.9278,VALID,-0.0679233,VALID,20.1894,VALID,189,VALID,0.442827,
2005-09-13, 00:33:01,VALID,917.496,VALID,0,VALID,99.9929,VALID,-0.0339617,VALID,20.2087,VALID,213,VALID,0.519817,
2005-09-13, 00:34:01,VALID,917.499,VALID,0,VALID,99.9756,VALID,-0.0339617,VALID,20.2415,VALID,224,VALID,0.495164,
2005-09-13, 00:35:01,VALID,917.487,VALID,0,VALID,100,VALID,-0.0339617,VALID,20.2639,VALID,230,VALID,0.396662,
2005-09-13, 00:36:01,VALID,917.475,VALID,0,VALID,100,VALID,-0.0509425,VALID,20.2937,VALID,230,VALID,0.394141,
2005-09-13, 00:37:01,VALID,917.434,VALID,0,VALID,100,VALID,-0.0849042,VALID,20.2964,VALID,230,VALID,0.10665,
2005-09-13, 00:38:01,VALID,917.413,VALID,0,VALID,100,VALID,-0.0849042,VALID,20.319,VALID,236,VALID,0.078311,
2005-09-13, 00:39:01,VALID,917.377,VALID,0,VALID,99.9769,VALID,-0.0849042,VALID,20.319,VALID,241,VALID,0.120236,
2005-09-13, 00:40:01,VALID,917.336,VALID,0,VALID,99.7854,VALID,-0.0509425,VALID,20.3156,VALID,241,VALID,0.23316,
2005-09-13, 00:41:01,VALID,917.286,VALID,0,VALID,99.5806,VALID,-0.0169808,VALID,20.29,VALID,241,VALID,0.21657,
2005-09-13, 00:42:01,VALID,917.258,VALID,0,VALID,99.5616,VALID,-0.0339617,VALID,20.2706,VALID,241,VALID,0.137891,
2005-09-13, 00:43:01,VALID,917.236,VALID,0,VALID,99.5247,VALID,-0.0509425,VALID,20.2453,VALID,306,VALID,0.339666,
2005-09-13, 00:44:01,VALID,917.236,VALID,0,VALID,99.6239,VALID,-0.101885,VALID,20.2284,VALID,18,VALID,0.496181,
2005-09-13, 00:45:01,VALID,917.222,VALID,0,VALID,99.7281,VALID,-0.0339617,VALID,20.2278,VALID,18,VALID,0.533067,
2005-09-13, 00:46:01,VALID,917.21,VALID,0,VALID,99.6633,VALID,-0.0509425,VALID,20.2313,VALID,18,VALID,0.551962,
2005-09-13, 00:47:01,VALID,917.195,VALID,0,VALID,99.601,VALID,-0.0849042,VALID,20.2122,VALID,18,VALID,0.700335,
2005-09-13, 00:48:01,VALID,917.171,VALID,0,VALID,99.6455,VALID,-0.0509425,VALID,20.1923,VALID,18,VALID,0.323785,
2005-09-13, 00:49:01,VALID,917.162,VALID,0,VALID,99.7574,VALID,-0.0679233,VALID,20.1961,VALID,16,VALID,0.515625,
2005-09-13, 00:50:01,VALID,917.154,VALID,0,VALID,99.8947,VALID,-0.0509425,VALID,20.1923,VALID,16,VALID,0.188388,
2005-09-13, 00:51:01,VALID,917.131,VALID,0,VALID,99.9883,VALID,-0.0339617,VALID,20.2246,VALID,16,VALID,0,
2005-09-13, 00:52:01,VALID,917.125,VALID,0,VALID,100,VALID,-0.0339617,VALID,20.2607,VALID,16,VALID,0.111979,
2005-09-13, 00:53:01,VALID,917.122,VALID,0,VALID,100,VALID,-0.0849042,VALID,20.2803,VALID,16,VALID,0.178385,
2005-09-13, 00:54:01,VALID,917.131,VALID,0,VALID,100,VALID,-0.0509425,VALID,20.3126,VALID,16,VALID,0.0319767,
2005-09-13, 00:55:01,VALID,917.135,VALID,0,VALID,100,VALID,-0.0509425,VALID,20.3382,VALID,16,VALID,0.297602,
2005-09-13, 00:56:00,VALID,917.13,VALID,0,VALID,99.9588,VALID,-0.0339617,VALID,20.3605,VALID,16,VALID,0.271257,
2005-09-13, 00:57:00,VALID,917.139,VALID,0,VALID,99.8413,VALID,-0.0169808,VALID,20.3605,VALID,16,VALID,0.518714,
2005-09-13, 00:58:00,VALID,917.151,VALID,0,VALID,99.8642,VALID,-0.0509425,VALID,20.3511,VALID,17,VALID,1.03924,
2005-09-13, 00:59:00,VALID,917.167,VALID,0,VALID,99.9723,VALID,-0.0339617,VALID,20.3535,VALID,19,VALID,1.06669,
2005-09-13, 01:00:00,VALID,917.194,VALID,0,VALID,99.9519,VALID,-0.0849042,VALID,20.3707,VALID,19,VALID,1.1622,
2005-09-13, 01:01:00,VALID,917.215,VALID,0,VALID,99.8998,VALID,-0.0849042,VALID,20.3476,VALID,14,VALID,1.21584,
2005-09-13, 01:02:00,VALID,917.237,VALID,0,VALID,99.8527,VALID,-0.0679233,VALID,20.3479,VALID,6,VALID,0.943638,
2005-09-13, 01:03:00,VALID,917.259,VALID,0,VALID,99.7497,VALID,-0.0849042,VALID,20.3322,VALID,353,VALID,0.931212,
2005-09-13, 01:04:00,VALID,917.271,VALID,0,VALID,99.8019,VALID,-0.0679233,VALID,20.3061,VALID,346,VALID,1.04179,
2005-09-13, 01:05:00,VALID,917.273,VALID,0,VALID,99.9616,VALID,-0.0849042,VALID,20.2997,VALID,350,VALID,0.897727,
2005-09-13, 01:06:00,VALID,917.3,VALID,0,VALID,100,VALID,-0.0849042,VALID,20.2964,VALID,353,VALID,0.877257,
2005-09-13, 01:07:00,VALID,917.291,VALID,0,VALID,100,VALID,-0.0679233,VALID,20.3064,VALID,353,VALID,0.725694,
2005-09-13, 01:08:00,VALID,917.291,VALID,0,VALID,100,VALID,-0.0509425,VALID,20.3126,VALID,359,VALID,0.57649,
2005-09-13, 01:09:00,VALID,917.32,VALID,0,VALID,100,VALID,-0.0679233,VALID,20.326,VALID,5,VALID,0.458079,
2005-09-13, 01:10:00,VALID,917.303,VALID,0,VALID,100,VALID,-0.0509425,VALID,20.3317,VALID,17,VALID,0.681734,
2005-09-13, 01:11:00,VALID,917.299,VALID,0,VALID,100,VALID,-0.0849042,VALID,20.3255,VALID,17,VALID,0.912538,
2005-09-13, 01:12:00,VALID,917.321,VALID,0,VALID,100,VALID,-0.101885,VALID,20.3228,VALID,23,VALID,0.648438,
2005-09-13, 01:13:00,VALID,917.332,VALID,0,VALID,100,VALID,-0.0849042,VALID,20.329,VALID,25,VALID,0.707292,
2005-09-13, 01:14:00,VALID,917.325,VALID,0,VALID,100,VALID,-0.101885,VALID,20.3094,VALID,32,VALID,0.78487,
2005-09-13, 01:15:00,VALID,917.302,VALID,0,VALID,100,VALID,-0.101885,VALID,20.3161,VALID,32,VALID,0.503646,
2005-09-13, 01:16:00,VALID,917.288,VALID,0,VALID,100,VALID,0.0339617,VALID,20.3145,VALID,35,VALID,0.501172,
2005-09-13, 01:17:00,VALID,917.272,VALID,0,VALID,100,VALID,0.0169808,VALID,20.2979,VALID,37,VALID,0.527148,
2005-09-13, 01:18:00,VALID,917.244,VALID,0,VALID,100,VALID,0.0169808,VALID,20.3014,VALID,34,VALID,0.503736,
2005-09-13, 01:19:00,VALID,917.209,VALID,0,VALID,100,VALID,0.0509425,VALID,20.2984,VALID,17,VALID,0.653011,
2005-09-13, 01:20:00,VALID,917.208,VALID,0,VALID,100,VALID,0.0169808,VALID,20.2949,VALID,15,VALID,0.883358,
2005-09-13, 01:21:00,VALID,917.181,VALID,0,VALID,100,VALID,0,VALID,20.2693,VALID,357,VALID,0.652166,
2005-09-13, 01:22:00,VALID,917.164,VALID,0,VALID,100,VALID,0.0169808,VALID,20.2529,VALID,354,VALID,0.670313,
2005-09-13, 01:23:00,VALID,917.143,VALID,0,VALID,100,VALID,0,VALID,20.2405,VALID,354,VALID,0.688772,
2005-09-13, 01:24:00,VALID,917.123,VALID,0,VALID,100,VALID,0.0169808,VALID,20.2144,VALID,354,VALID,0.584032,
2005-09-13, 01:25:00,VALID,917.102,VALID,0,VALID,100,VALID,0,VALID,20.1985,VALID,357,VALID,0.703819,
2005-09-13, 01:26:00,VALID,917.095,VALID,0,VALID,100,VALID,0.0339617,VALID,20.1891,VALID,360,VALID,0.761541,
2005-09-13, 01:27:00,VALID,917.089,VALID,0,VALID,100,VALID,0.0169808,VALID,20.1722,VALID,359,VALID,0.931548,
2005-09-13, 01:28:00,VALID,917.086,VALID,0,VALID,100,VALID,0,VALID,20.1729,VALID,350,VALID,1.05362,
2005-09-13, 01:29:00,VALID,917.082,VALID,0,VALID,100,VALID,0,VALID,20.1469,VALID,346,VALID,1.03218,
2005-09-13, 01:30:00,VALID,917.073,VALID,0,VALID,100,VALID,0,VALID,20.1337,VALID,5,VALID,0.938408,
2005-09-13, 01:31:00,VALID,917.071,VALID,0,VALID,100,VALID,0.0339617,VALID,20.1272,VALID,353,VALID,0.723704,
2005-09-13, 01:32:00,VALID,917.047,VALID,0,VALID,100,VALID,0,VALID,20.1111,VALID,324,VALID,0.596354,
2005-09-13, 01:33:00,VALID,917.004,VALID,0,VALID,100,VALID,0.0339617,VALID,20.1143,VALID,347,VALID,1.06014,
2005-09-13, 01:34:00,VALID,916.963,VALID,0,VALID,100,VALID,0,VALID,20.1079,VALID,1,VALID,0.761186,
2005-09-13, 01:35:00,VALID,916.928,VALID,0,VALID,100,VALID,0.0169808,VALID,20.1079,VALID,4,VALID,1.22212,
2005-09-13, 01:36:00,VALID,916.899,VALID,0,VALID,100,VALID,0,VALID,20.1046,VALID,359,VALID,0.832682,
2005-09-13, 01:37:00,VALID,916.881,VALID,0,VALID,100,VALID,0.0509425,VALID,20.1044,VALID,316,VALID,0.621466,
2005-09-13, 01:38:00,VALID,916.879,VALID,0,VALID,100,VALID,0.0509425,VALID,20.1277,VALID,28,VALID,0.332122,
2005-09-13, 01:39:00,VALID,916.885,VALID,0,VALID,100,VALID,0.0169808,VALID,20.1275,VALID,354,VALID,0.397852,
2005-09-13, 01:40:00,VALID,916.893,VALID,0,VALID,100,VALID,0.0169808,VALID,20.1208,VALID,350,VALID,0.718928,
2005-09-13, 01:41:00,VALID,916.895,VALID,0,VALID,100,VALID,0.0339617,VALID,20.1143,VALID,351,VALID,0.749455,
2005-09-13, 01:42:00,VALID,916.88,VALID,0,VALID,100,VALID,0.0509425,VALID,20.1213,VALID,292,VALID,0.525436,
2005-09-13, 01:43:00,VALID,916.888,VALID,0,VALID,100,VALID,0.0339617,VALID,20.0974,VALID,292,VALID,0.282315,
2005-09-13, 01:44:00,VALID,916.87,VALID,0,VALID,100,VALID,0.0169808,VALID,20.1178,VALID,299,VALID,0.301054,
2005-09-13, 01:45:00,VALID,916.856,VALID,0,VALID,100,VALID,0.0679233,VALID,20.1138,VALID,336,VALID,0.628158,
2005-09-13, 01:46:00,VALID,916.85,VALID,0,VALID,100,VALID,-0.0679233,VALID,20.1285,VALID,336,VALID,0.212984,
2005-09-13, 01:47:00,VALID,916.85,VALID,0,VALID,100,VALID,-0.0679233,VALID,20.1384,VALID,293,VALID,0.415551,
2005-09-13, 01:48:00,VALID,916.856,VALID,0,VALID,100,VALID,-0.0679233,VALID,20.1382,VALID,320,VALID,0.373365,
2005-09-13, 01:49:00,VALID,916.85,VALID,0,VALID,100,VALID,-0.0509425,VALID,20.1479,VALID,360,VALID,0.276953,
2005-09-13, 01:50:00,VALID,916.853,VALID,0,VALID,100,VALID,-0.0679233,VALID,20.1538,VALID,360,VALID,0.0372024,
2005-09-13, 01:51:00,VALID,916.843,VALID,0,VALID,100,VALID,-0.0849042,VALID,20.1804,VALID,360,VALID,0.135603,
2005-09-13, 01:52:00,VALID,916.836,VALID,0,VALID,100,VALID,-0.0849042,VALID,20.1933,VALID,360,VALID,0.166016,
2005-09-13, 01:53:00,VALID,916.807,VALID,0,VALID,100,VALID,-0.0679233,VALID,20.1995,VALID,360,VALID,0.0514171,
2005-09-13, 01:54:00,VALID,916.774,VALID,0,VALID,100,VALID,-0.0679233,VALID,20.2125,VALID,360,VALID,0.0078125,
2005-09-13, 01:55:00,VALID,916.769,VALID,0,VALID,100,VALID,-0.101885,VALID,20.2289,VALID,360,VALID,0.0625,
2005-09-13, 01:56:00,VALID,916.748,VALID,0,VALID,100,VALID,-0.0679233,VALID,20.2222,VALID,360,VALID,0.0676448,
2005-09-13, 01:57:00,VALID,916.739,VALID,0,VALID,100,VALID,-0.101885,VALID,20.2321,VALID,360,VALID,0.241425,
2005-09-13, 01:58:00,VALID,916.72,VALID,0,VALID,100,VALID,-0.101885,VALID,20.2582,VALID,360,VALID,0.31343,
2005-09-13, 01:59:00,VALID,916.707,VALID,0,VALID,100,VALID,-0.101885,VALID,20.2582,VALID,360,VALID,0.391158,
2005-09-13, 02:00:00,VALID,916.7,VALID,0,VALID,100,VALID,-0.0679233,VALID,20.2617,VALID,360,VALID,0.188802,
2005-09-13, 02:01:00,VALID,916.693,VALID,0,VALID,100,VALID,0,VALID,20.2532,VALID,360,VALID,0.169444,
2005-09-13, 02:02:00,VALID,916.69,VALID,0,VALID,100,VALID,0.0169808,VALID,20.2341,VALID,360,VALID,0.144176,
2005-09-13, 02:03:00,VALID,916.677,VALID,0,VALID,100,VALID,0.0169808,VALID,20.2308,VALID,360,VALID,0,
2005-09-13, 02:04:00,VALID,916.655,VALID,0,VALID,100,VALID,0,VALID,20.2147,VALID,360,VALID,0,
2005-09-13, 02:05:00,VALID,916.656,VALID,0,VALID,100,VALID,0.0169808,VALID,20.2211,VALID,360,VALID,0,
2005-09-13, 02:06:00,VALID,916.643,VALID,0,VALID,100,VALID,0,VALID,20.2206,VALID,360,VALID,0.043968,
2005-09-13, 02:07:00,VALID,916.619,VALID,0,VALID,100,VALID,0.0169808,VALID,20.2142,VALID,360,VALID,0,
2005-09-13, 02:08:00,VALID,916.635,VALID,0,VALID,100,VALID,0.0169808,VALID,20.2211,VALID,360,VALID,0.0257457,
2005-09-13, 02:09:00,VALID,916.62,VALID,0,VALID,100,VALID,0.0169808,VALID,20.2013,VALID,360,VALID,0,
2005-09-13, 02:10:00,VALID,916.61,VALID,0,VALID,100,VALID,0.0339617,VALID,20.198,VALID,360,VALID,0.243676,
2005-09-13, 02:11:00,VALID,916.621,VALID,0,VALID,100,VALID,0.0169808,VALID,20.2214,VALID,360,VALID,0.541735,
2005-09-13, 02:12:00,VALID,916.599,VALID,0,VALID,100,VALID,0.0339617,VALID,20.195,VALID,2,VALID,0.608073,
2005-09-13, 02:13:00,VALID,916.601,VALID,0,VALID,100,VALID,0.0339617,VALID,20.1886,VALID,3,VALID,0.527699,
2005-09-13, 02:14:00,VALID,916.586,VALID,0,VALID,100,VALID,0.0339617,VALID,20.1821,VALID,3,VALID,0.438244,
2005-09-13, 02:15:00,VALID,916.58,VALID,0,VALID,100,VALID,0,VALID,20.1854,VALID,3,VALID,0.282584,
2005-09-13, 02:16:00,VALID,916.577,VALID,0,VALID,100,VALID,-0.0679233,VALID,20.1837,VALID,3,VALID,0.175409,
2005-09-13, 02:17:00,VALID,916.582,VALID,0,VALID,100,VALID,-0.0849042,VALID,20.1804,VALID,3,VALID,0.376065,
2005-09-13, 02:18:00,VALID,916.581,VALID,0,VALID,100,VALID,-0.0679233,VALID,20.1901,VALID,3,VALID,0.288477,
2005-09-13, 02:19:00,VALID,916.598,VALID,0,VALID,100,VALID,-0.0169808,VALID,20.1933,VALID,3,VALID,0.0783155,
2005-09-13, 02:20:00,VALID,916.602,VALID,0,VALID,100,VALID,-0.0509425,VALID,20.206,VALID,3,VALID,0.0810547,
2005-09-13, 02:21:00,VALID,916.61,VALID,0,VALID,100,VALID,-0.0339617,VALID,20.2028,VALID,3,VALID,0.0871804,
2005-09-13, 02:22:00,VALID,916.612,VALID,0,VALID,100,VALID,0,VALID,20.2127,VALID,3,VALID,0.126042,
2005-09-13, 02:23:00,VALID,916.613,VALID,0,VALID,100,VALID,-0.0169808,VALID,20.2092,VALID,3,VALID,0.125572,
2005-09-13, 02:24:00,VALID,916.593,VALID,0,VALID,100,VALID,-0.0679233,VALID,20.2256,VALID,11,VALID,0.393821,
2005-09-13, 02:25:00,VALID,916.586,VALID,0,VALID,100,VALID,-0.0679233,VALID,20.2219,VALID,24,VALID,0.714844,
2005-09-13, 02:26:00,VALID,916.572,VALID,0,VALID,100,VALID,-0.0509425,VALID,20.2157,VALID,3,VALID,0.783854,
2005-09-13, 02:27:00,VALID,916.565,VALID,0,VALID,100,VALID,-0.0849042,VALID,20.2224,VALID,353,VALID,0.614281,
2005-09-13, 02:28:00,VALID,916.549,VALID,0,VALID,100,VALID,-0.101885,VALID,20.2127,VALID,10,VALID,0.556868,
2005-09-13, 02:29:00,VALID,916.541,VALID,0,VALID,100,VALID,-0.0679233,VALID,20.2291,VALID,12,VALID,0.445845,
2005-09-13, 02:30:00,VALID,916.536,VALID,0,VALID,100,VALID,-0.0679233,VALID,20.2453,VALID,12,VALID,0.447129,
2005-09-13, 02:31:00,VALID,916.532,VALID,0,VALID,100,VALID,-0.0679233,VALID,20.2614,VALID,12,VALID,0.665551,
2005-09-13, 02:32:00,VALID,916.512,VALID,0,VALID,100,VALID,-0.0679233,VALID,20.2738,VALID,359,VALID,0.720465,
2005-09-13, 02:33:00,VALID,916.525,VALID,0,VALID,100,VALID,-0.0849042,VALID,20.2743,VALID,1,VALID,0.677148,
2005-09-13, 02:34:00,VALID,916.509,VALID,0,VALID,100,VALID,-0.0679233,VALID,20.2676,VALID,360,VALID,0.64375,
2005-09-13, 02:35:00,VALID,916.517,VALID,0,VALID,99.9967,VALID,-0.0509425,VALID,20.2445,VALID,6,VALID,0.865189,
2005-09-13, 02:36:00,VALID,916.52,VALID,0,VALID,99.9977,VALID,-0.0849042,VALID,20.2254,VALID,15,VALID,0.706473,
2005-09-13, 02:37:00,VALID,916.512,VALID,0,VALID,100,VALID,-0.0509425,VALID,20.2222,VALID,14,VALID,0.587582,
2005-09-13, 02:38:00,VALID,916.517,VALID,0,VALID,99.9977,VALID,-0.0509425,VALID,20.2289,VALID,14,VALID,0.835175,
2005-09-13, 02:39:00,VALID,916.52,VALID,0,VALID,99.9931,VALID,-0.0679233,VALID,20.2127,VALID,15,VALID,0.728993,
2005-09-13, 02:40:00,VALID,916.527,VALID,0,VALID,99.9504,VALID,-0.0339617,VALID,20.206,VALID,22,VALID,0.961115,
2005-09-13, 02:41:00,VALID,916.562,VALID,0,VALID,99.9125,VALID,-0.0169808,VALID,20.1931,VALID,15,VALID,0.822731,
2005-09-13, 02:42:00,VALID,916.555,VALID,0,VALID,99.929,VALID,-0.101885,VALID,20.1804,VALID,11,VALID,0.734028,
2005-09-13, 02:43:00,VALID,916.554,VALID,0,VALID,99.9977,VALID,-0.0169808,VALID,20.1772,VALID,15,VALID,0.808416,
2005-09-13, 02:44:00,VALID,916.549,VALID,0,VALID,100,VALID,-0.0509425,VALID,20.1533,VALID,12,VALID,0.820685,
2005-09-13, 02:45:00,VALID,916.537,VALID,0,VALID,100,VALID,-0.0679233,VALID,20.1409,VALID,22,VALID,0.489281,
2005-09-13, 02:46:00,VALID,916.528,VALID,0,VALID,100,VALID,-0.0849042,VALID,20.1444,VALID,20,VALID,0.450781,
2005-09-13, 02:47:00,VALID,916.495,VALID,0,VALID,100,VALID,-0.0679233,VALID,20.1384,VALID,20,VALID,0.53196,
2005-09-13, 02:48:00,VALID,916.482,VALID,0,VALID,100,VALID,-0.0849042,VALID,20.1158,VALID,20,VALID,0.117188,
2005-09-13, 02:49:00,VALID,916.451,VALID,0,VALID,100,VALID,-0.101885,VALID,20.0994,VALID,20,VALID,0,
2005-09-13, 02:50:00,VALID,916.431,VALID,0,VALID,100,VALID,-0.0679233,VALID,20.1059,VALID,20,VALID,0,
2005-09-13, 02:51:00,VALID,916.424,VALID,0,VALID,100,VALID,-0.101885,VALID,20.0999,VALID,20,VALID,0,
2005-09-13, 02:52:00,VALID,916.428,VALID,0,VALID,100,VALID,-0.101885,VALID,20.1029,VALID,20,VALID,0,
2005-09-13, 02:53:00,VALID,916.389,VALID,0,VALID,100,VALID,-0.0849042,VALID,20.087,VALID,20,VALID,0,
2005-09-13, 02:54:00,VALID,916.385,VALID,0,VALID,100,VALID,-0.0849042,VALID,20.0868,VALID,20,VALID,0,
2005-09-13, 02:55:00,VALID,916.362,VALID,0,VALID,100,VALID,-0.0849042,VALID,20.0965,VALID,20,VALID,0.017721,
2005-09-13, 02:56:00,VALID,916.344,VALID,0,VALID,100,VALID,-0.0509425,VALID,20.1032,VALID,5,VALID,0.220022,
2005-09-13, 02:57:00,VALID,916.344,VALID,0,VALID,100,VALID,-0.0849042,VALID,20.1061,VALID,358,VALID,0.0461957,
2005-09-13, 02:58:00,VALID,916.342,VALID,0,VALID,100,VALID,-0.0849042,VALID,20.1027,VALID,358,VALID,0,
2005-09-13, 02:59:00,VALID,916.349,VALID,0,VALID,100,VALID,-0.0679233,VALID,20.093,VALID,358,VALID,0,
2005-09-13, 03:00:00,VALID,916.353,VALID,0,VALID,100,VALID,-0.0509425,VALID,20.0838,VALID,358,VALID,0,
2005-09-13, 03:01:00,VALID,916.362,VALID,0,VALID,100,VALID,0,VALID,20.0723,VALID,358,VALID,0,
2005-09-13, 03:02:00,VALID,916.376,VALID,0,VALID,100,VALID,0.0169808,VALID,20.0688,VALID,358,VALID,0,
2005-09-13, 03:03:00,VALID,916.386,VALID,0,VALID,100,VALID,0.0169808,VALID,20.0885,VALID,358,VALID,0,
2005-09-13, 03:04:00,VALID,916.368,VALID,0,VALID,100,VALID,0,VALID,20.0823,VALID,358,VALID,0,
2005-09-13, 03:05:00,VALID,916.412,VALID,0,VALID,100,VALID,-0.0339617,VALID,20.0957,VALID,358,VALID,0.0330669,
2005-09-13, 03:06:00,VALID,916.409,VALID,0,VALID,100,VALID,0,VALID,20.0852,VALID,358,VALID,0,
2005-09-13, 03:07:00,VALID,916.424,VALID,0,VALID,100,VALID,0,VALID,20.092,VALID,358,VALID,0,
2005-09-13, 03:08:00,VALID,916.423,VALID,0,VALID,100,VALID,-0.0169808,VALID,20.0828,VALID,358,VALID,0,
2005-09-13, 03:09:00,VALID,916.434,VALID,0,VALID,100,VALID,0,VALID,20.0825,VALID,358,VALID,0,
2005-09-13, 03:10:00,VALID,916.44,VALID,0,VALID,100,VALID,0.0169808,VALID,20.0694,VALID,358,VALID,0,
2005-09-13, 03:11:00,VALID,916.455,VALID,0,VALID,100,VALID,0,VALID,20.047,VALID,358,VALID,0,
2005-09-13, 03:12:00,VALID,916.484,VALID,0,VALID,100,VALID,0,VALID,20.0276,VALID,358,VALID,0,
2005-09-13, 03:13:00,VALID,916.507,VALID,0,VALID,100,VALID,0,VALID,20.0182,VALID,358,VALID,0.144985,
2005-09-13, 03:14:00,VALID,916.523,VALID,0,VALID,100,VALID,-0.0169808,VALID,20.0152,VALID,358,VALID,0.310865,
2005-09-13, 03:15:00,VALID,916.526,VALID,0,VALID,100,VALID,0,VALID,20.0145,VALID,358,VALID,0.387718,
2005-09-13, 03:16:00,VALID,916.532,VALID,0,VALID,100,VALID,0,VALID,20.0214,VALID,358,VALID,0.385476,
2005-09-13, 03:17:00,VALID,916.516,VALID,0,VALID,100,VALID,0,VALID,20.0179,VALID,358,VALID,0.412847,
2005-09-13, 03:18:00,VALID,916.509,VALID,0,VALID,100,VALID,0,VALID,19.9961,VALID,50,VALID,0.49116,
2005-09-13, 03:19:00,VALID,916.507,VALID,0,VALID,100,VALID,-0.0169808,VALID,19.9563,VALID,54,VALID,0.490885,
2005-09-13, 03:20:00,VALID,916.512,VALID,0,VALID,100,VALID,0,VALID,19.9506,VALID,56,VALID,0.521076,
2005-09-13, 03:21:00,VALID,916.492,VALID,0,VALID,100,VALID,0,VALID,19.9315,VALID,92,VALID,0.506944,
2005-09-13, 03:22:00,VALID,916.478,VALID,0,VALID,100,VALID,-0.0339617,VALID,19.9151,VALID,126,VALID,0.690341,
2005-09-13, 03:23:00,VALID,916.486,VALID,0,VALID,100,VALID,0,VALID,19.9017,VALID,145,VALID,0.608817,
2005-09-13, 03:24:00,VALID,916.478,VALID,0,VALID,100,VALID,-0.0339617,VALID,19.9022,VALID,149,VALID,0.606001,
2005-09-13, 03:25:00,VALID,916.475,VALID,0,VALID,100,VALID,0,VALID,19.8992,VALID,148,VALID,0.589489,
2005-09-13, 03:26:00,VALID,916.482,VALID,0,VALID,100,VALID,-0.0509425,VALID,19.8696,VALID,136,VALID,0.534489,
2005-09-13, 03:27:00,VALID,916.501,VALID,0,VALID,100,VALID,-0.0169808,VALID,19.8699,VALID,121,VALID,0.41495,
2005-09-13, 03:28:00,VALID,916.496,VALID,0,VALID,99.8947,VALID,0,VALID,19.8212,VALID,90,VALID,0.616477,
2005-09-13, 03:29:00,VALID,916.497,VALID,0,VALID,99.7523,VALID,0,VALID,19.7993,VALID,74,VALID,0.775343,
2005-09-13, 03:30:00,VALID,916.481,VALID,0,VALID,99.7917,VALID,-0.0169808,VALID,19.7698,VALID,74,VALID,0.715661,
2005-09-13, 03:31:00,VALID,916.469,VALID,0,VALID,99.9448,VALID,-0.0169808,VALID,19.7606,VALID,79,VALID,0.7883,
2005-09-13, 03:32:00,VALID,916.453,VALID,0,VALID,100,VALID,0,VALID,19.7596,VALID,89,VALID,0.986374,
2005-09-13, 03:33:00,VALID,916.438,VALID,0,VALID,100,VALID,-0.0169808,VALID,19.7569,VALID,85,VALID,0.971294,
2005-09-13, 03:34:00,VALID,916.424,VALID,0,VALID,100,VALID,0,VALID,19.7447,VALID,108,VALID,1.00127,
2005-09-13, 03:35:00,VALID,916.423,VALID,0,VALID,100,VALID,-0.0169808,VALID,19.7216,VALID,97,VALID,0.527249,
2005-09-13, 03:36:00,VALID,916.428,VALID,0,VALID,100,VALID,-0.0169808,VALID,19.6824,VALID,103,VALID,0.407965,
2005-09-13, 03:37:00,VALID,916.427,VALID,0,VALID,100,VALID,0,VALID,19.66,VALID,108,VALID,0.395508,